Hors Challenge

L'STC Night Trail à Cerfontaine (16.00 km)

dimanche 30 décembre 2018

Vous pouvez trouver Le classement original sur : http://www.extreme-sport.be/
 
STC NIGHT TRAIL - CERFONTAINE
DISTANCE : 15.91 km
dimanche 30 décembre 2018
 
Place dos NOM Catégorie Pl/cat temps temps/km Vitesse
01:00:00              
1 757 GOSSIAUX RENAN SEH 1 1:10:43 04:27 13.50
2 693 CROUQUET CORENTIN SEH 2 1:10:45 04:27 13.49
3 765 EVRATS MATTHIAS SEH 3 1:13:01 04:35 13.07
4 362 DECAMP JEROME SEH 4 1:14:26 04:41 12.83
5 322 MANIEZ SYLVAIN V1H 1 1:14:40 04:42 12.79
6 769 BECUE REMY SEH 5 1:18:52 04:57 12.10
7 375 BEDOU ANTONIN EG 1 1:19:44 05:01 11.97
8 441 MOUROT YOANN SEH 6 1:19:48 05:01 11.96
9 442 PÉRISSE FRANÇOIS V2H 1 1:21:07 05:06 11.77
10 419 CHOMBART SAMUEL V1H 2 1:22:51 05:12 11.52
11 438 REMY SÉBASTIEN V1H 3 1:27:11 05:29 10.95
12 355 VAN HOOIJDONK MATHIEU SEH 7 1:27:26 05:30 10.92
13 460 PECKEL LAURENT SEH 8 1:27:27 05:30 10.92
14 351 FRANCOIS GUILLAUME SEH 9 1:27:35 05:30 10.90
15 329 DAUBENTON MAXIME SEH 10 1:28:02 05:32 10.84
16 475 MASSON CHARLES SEH 11 1:29:24 05:37 10.68
17 331 LEHOUCK JULIEN SEH 12 1:29:43 05:38 10.64
18 386 HNATYSZYN ROMAIN SEH 13 1:29:47 05:39 10.63
19 695 MERSCH SEBASTIEN V1H 4 1:29:55 05:39 10.62
20 717 FRIPIAT BERNARD V1H 5 1:30:07 05:40 10.59
21 430 PIRAUX OLIVIER V2H 2 1:30:40 05:42 10.53
22 407 BACHELART DAMIEN SEH 14 1:30:41 05:42 10.53
23 450 LEBRUN JEROME V1H 6 1:31:21 05:44 10.45
24 480 AGLAVE ANTOINE SEH 15 1:31:39 05:46 10.42
25 763 LEYMAN EDDY V1H 7 1:32:05 05:47 10.37
26 764 CLEMENT JEROME SEH 16 1:32:08 05:47 10.36
27 439 PORTUGAL FREDERICO V1H 8 1:32:23 05:48 10.33
28 453 DAWANT JÉRÉMIE SEH 17 1:32:26 05:49 10.33
29 402 HÉNAUT JULIEN V1H 9 1:33:13 05:52 10.24
30 328 BOUILLET NICOLAS SEH 18 1:35:24 06:00 10.01
31 343 BAUTRIX LAURENT V1H 10 1:36:28 06:04 9.90
32 369 VANDEKERCHOVE HUGO EG 2 1:38:03 06:10 9.74
33 342 DEPRE DANIEL V2H 3 1:38:17 06:11 9.71
34 374 MICHAUX DIMITRI V1H 11 1:39:01 06:13 9.64
35 768 GYSEN MAXIM V1H 12 1:39:02 06:13 9.64
36 340 MATHIEU JACQUES V2H 4 1:39:03 06:14 9.64
37 381 BENAISSA ABDELLNAMARE XXX   1:39:05 06:14 9.64
38 377 PLICHARD CHRISTOPHE V1H 13 1:39:06 06:14 9.63
39 452 BERTRAND THIBAULT SEH 19 1:39:06 06:14 9.63
40 714 COLINET BENOÎT V1H 14 1:39:40 06:16 9.58
41 405 BELLAIRE JONATHAN V1H 15 1:39:52 06:17 9.56
42 363 GOBEAUX SÉBASTIEN SEH 20 1:40:38 06:19 9.49
43 399 BAELDEN WILLIAM SEH 21 1:40:40 06:20 9.48
44 716 HERMAND VANESSA V1F 1 1:40:42 06:20 9.48
45 398 BACHELART CLÉMENT SEH 22 1:40:49 06:20 9.47
46 758 LEONET MAXIME V1H 16 1:41:25 06:22 9.41
47 711 DECOEN EDDY SEH 23 1:41:34 06:23 9.40
48 385 GY JEAN-MARC XXX   1:42:14 06:26 9.34
49 357 DOCQUIER MELISSA SEF 1 1:42:14 06:26 9.34
50 380 HENNEBERT YANNICK V1H 17 1:42:15 06:26 9.34
51 416 OFFRÉ DENIS V1H 18 1:42:15 06:26 9.34
52 464 PONSELET JONAS SEH 24 1:42:28 06:26 9.32
53 723 PIETTE MICHAEL V1H 19 1:42:37 06:27 9.30
54 403 GÉRARD MIGUEL V1H 20 1:42:57 06:28 9.27
55 345 STILLEMANT LOIC SEH 25 1:44:48 06:35 9.11
56 370 VANDEKERCHOVE FABIEN V1H 21 1:44:57 06:36 9.10
57 359 DHUIEGE GUILLAUME V1H 22 1:45:00 06:36 9.09
58 415 BODART FABRICE V1H 23 1:45:58 06:40 9.01
59 728 SOUPART LÉOPOLD EG 3 1:46:00 06:40 9.01
60 726 SOUPART PAUL V2H 5 1:46:01 06:40 9.00
61 459 DECOUX CEDRIC SEH 26 1:46:01 06:40 9.00
62 413 LECHAT PAUL V1H 24 1:46:06 06:40 9.00
63 755 EVLARD KENNY SEH 27 1:46:23 06:41 8.97
64 408 VANDRIESSCHE CAROLINE SEF 2 1:47:40 06:46 8.87
65 710 PRAIL CHRISTIAN V3H 1 1:48:21 06:49 8.81
66 709 POURCHAUX ALEXIS SEH 28 1:48:22 06:49 8.81
67 330 FIDELAINE DANIEL V1H 25 1:48:39 06:50 8.79
68 749 KHERCHACHE NICOLAS SEH 29 1:51:35 07:01 8.56
69 750 SOULISSE ANTOINE SEH 30 1:51:35 07:01 8.56
70 772 DELIENCOURT ULRICK SEH 31 1:51:38 07:01 8.55
71 432 JOIRE MAXENCE SEH 32 1:52:04 07:03 8.52
72 406 HUAUX MICHAEL V1H 26 1:52:28 07:04 8.49
73 759 GUIOT ALEXANDRA SEF 3 1:52:29 07:04 8.49
74 466 PONCELET DYLAN SEH 33 1:52:30 07:04 8.49
75 334 CHANTEUX ALEXANDRE SEH 34 1:52:46 07:05 8.47
76 747 JARDON JEREMIE XXX   1:53:09 07:07 8.44
77 426 SIMON JULIEN SEH 35 1:53:28 07:08 8.41
78 323 DUMONT JOHAN SEH 36 1:53:53 07:09 8.38
79 360 DHUIEGE JULIE V1F 2 1:53:54 07:10 8.38
80 358 PICART PHILIPPE V1H 27 1:54:12 07:11 8.36
81 478 HUSSIN LOUIS SEH 37 1:54:25 07:11 8.34
82 361 CHAMPION JEAN V2H 6 1:54:44 07:13 8.32
83 756 DAUVIN BENJAMIN V1H 28 1:55:53 07:17 8.24
84 397 DEPRET LAURENT V1H 29 1:56:09 07:18 8.22
85 712 DE BLOCK THIERRY V1H 30 1:57:09 07:22 8.15
86 409 SCAILTEUR VÉRONIQUE V1F 3 1:58:00 07:25 8.09
87 754 HEMBISE THOMAS SEH 38 1:58:03 07:25 8.09
88 752 GOFFOY THOMAS SEH 39 1:58:03 07:25 8.09
89 412 DECLÈVE BENOÎT SEH 40 1:58:52 07:28 8.03
90 410 VAN DEN BUSSCHE DENIS V1H 31 1:58:56 07:28 8.03
91 724 MYANT NATHALIE V1F 4 1:59:05 07:29 8.02
92 725 SOUPART CLAIRE SEF 4 1:59:06 07:29 8.02
93 431 SOTTIAUX BENJAMIN V1H 32 1:59:14 07:30 8.01
94 705 CALIARO FABIAN SEH 41 1:59:15 07:30 8.01
95 762 HARDY LAURENT V1H 33 2:00:03 07:33 7.95
96 699 HUBERLAND JEAN-MARC V1H 34 2:00:24 07:34 7.93
97 745 ROCK CEDRIC SEH 42 2:01:28 07:38 7.86
98 702 FARRIS ROMY V1F 5 2:01:59 07:40 7.83
99 425 FRENNET MAXIME SEH 43 2:02:04 07:40 7.82
100 356 RONVAUX PHILIPPE V1H 35 2:02:17 07:41 7.81
101 748 PEIFFER JF V1H 36 0:0.085 00:00 673888.24
102 354 BOSERET SEBASTIEN V1H 37 2:02:49 07:43 7.77
103 463 ANDRE EMMANUEL SEH 44 2:03:21 07:45 7.74
104 701 LETERME VANESSA SEF 5 2:05:19 07:53 7.62
105 730 FUNDUK STEPHANIE V1F 6 2:05:19 07:53 7.62
106 700 LEBLON MARC SEH 45 2:05:20 07:53 7.62
107 448 COURTOIS ANTOINE SEH 46 2:07:41 08:01 7.48
108 444 ABRAHAM LUC V3H 2 2:07:42 08:02 7.48
109 697 GORAZZA PHILIPPE V2H 7 2:17:26 08:38 6.95
110 116 MERESSE CYRIL SEH 47 2:21:07 08:52 6.77
111 421 LAURENT EMMANUELLE V1F 7 2:25:23 09:08 6.57
112 423 VANESSE PATRICIA V1F 8 2:25:24 09:08 6.57
113 420 MICHEL PIERRE V1H 38 2:25:24 09:08 6.57
114 424 DEWILDE CLAIRE SEF 6 2:32:21 09:34 6.27
115 404 LARIVE JÉRÔME SEH 48 2:32:22 09:35 6.27
116 401 CORNET JÉRÔME V1H 39 2:57:26 11:09 5.38
117 468 DESCAMPS TANGUI SEH 49 2:57:26 11:09 5.38
118 474 VANDENHOOFDEN JENNIFER SEF 7 2:57:26 11:09 5.38
119 469 ROLUS MARIE SEF 8 2:57:26 11:09 5.38
120 471 LANGE ANNE-LISE SEF 9 2:57:27 11:09 5.38